This is the latest recevied weather packets stored in our database for station/object WZ9ZZZ-1. If no packets are shown the sender has not sent any weather packets the latest 10 day(s).
| Time | Temp. | Humidity | Pressure | Rain* | Wind** | Luminosity | Snow |
|---|---|---|---|---|---|---|---|
| 1777941580 | 23.89° C | 76% | 1014.6 hPa | 0 mm | - | 11 W/m² | - |
| 1777941277 | 23.89° C | 75% | 1014.5 hPa | 0 mm | - | 13 W/m² | - |
| 1777940973 | 23.89° C | 75% | 1014.7 hPa | 0 mm | - | 17 W/m² | - |
| 1777940669 | 23.89° C | 75% | 1014.9 hPa | 0 mm | - | 19 W/m² | - |
| 1777940368 | 23.89° C | 74% | 1014.9 hPa | 0 mm | - | 24 W/m² | - |
| 1777940065 | 24.44° C | 74% | 1014.7 hPa | 0 mm | - | 30 W/m² | - |
| 1777939762 | 24.44° C | 74% | 1014.8 hPa | 0 mm | - | 33 W/m² | - |
| 1777939460 | 24.44° C | 74% | 1014.7 hPa | 0 mm | - | 41 W/m² | - |
| 1777939156 | 24.44° C | 74% | 1014.9 hPa | 0 mm | - | 51 W/m² | - |
| 1777938854 | 24.44° C | 74% | 1015 hPa | 0 mm | - | 59 W/m² | - |
| 1777938550 | 24.44° C | 74% | 1014.9 hPa | 0 mm | - | 55 W/m² | - |
| 1777938248 | 25° C | 73% | 1015 hPa | 0 mm | - | 53 W/m² | - |
| 1777937944 | 25° C | 72% | 1015 hPa | 0 mm | - | 57 W/m² | - |
| 1777937639 | 25° C | 73% | 1015.2 hPa | 0 mm | - | 58 W/m² | - |
| 1777937336 | 25.56° C | 71% | 1015 hPa | 0 mm | - | 83 W/m² | - |
| 1777937034 | 25.56° C | 70% | 1015.1 hPa | 0 mm | - | 164 W/m² | - |
| 1777936730 | 25° C | 72% | 1015 hPa | 0 mm | - | 165 W/m² | - |
| 1777936427 | 25° C | 72% | 1015.5 hPa | 0 mm | - | 124 W/m² | - |
| 1777936123 | 24.44° C | 72% | 1015.4 hPa | 0 mm | - | 117 W/m² | - |
| 1777935821 | 24.44° C | 72% | 1015.3 hPa | 0 mm | - | 110 W/m² | - |
| 1777935519 | 24.44° C | 72% | 1015.5 hPa | 0 mm | - | 80 W/m² | - |
| 1777935215 | 25° C | 72% | 1015.5 hPa | 0 mm | - | 140 W/m² | - |
| 1777934913 | 25° C | 72% | 1015.7 hPa | 0 mm | - | 170 W/m² | - |
| 1777934610 | 25° C | 71% | 1015.5 hPa | 0 mm | - | 155 W/m² | - |
| 1777934306 | 25° C | 71% | 1015.7 hPa | 0 mm | - | 161 W/m² | - |
* Rain latest hour (hover to see other rain measurements)
** Current wind speed in m/s (hover to see current wind gust speed)